Location: Banff
(51.1667°N, 115.5667°W)
Time: 16:16:07
(UTC+00:00)

Tiros 1 - Pass Details

Date: 29 July 2021
Orbit: 630 x 663 km, 48.4° (Epoch: 23 September)

Event Time Altitude Azimuth Distance (km) Brightness Sun altitude
Rises 07:15:48 0° 276° (W) 2,961 10.7 -19.8°
Reaches altitude 10° 07:18:12 10° 271° (W) 2,043 9.8 -19.8°
Maximum altitude 07:22:42 46° 199° (SSW) 863 7.3 -19.9°
Enters shadow 07:22:42 46° 198° (SSW) 863 7.3 -19.9°
